Regional Weather Roundup
Issued by NWS

Home | Current Version | Previous Version | Graphics & Text | Print | Product List | Glossary On
Versions: 1 2 3 4 5 6 7 8 9 10 11 12 13 14 15 16 17 18 19 20 21 22 23 24 25 26 27 28 29 30 31 32 33 34 35 36 37 38 39 40 41 42 43 44 45 46 47 48 49 50
000
ASUS43 KOAX 051510
RWRNE

WEATHER ROUNDUP FOR NEBRASKA
NATIONAL WEATHER SERVICE OMAHA NE
1000 AM CDT TUE MAY 05 2015

NOTES: SATELLITE DATA IS BEING USED TO AUGMENT CLOUD COVER ABOVE
       12000 FEET.
       "FAIR" INDICATES FEW OR NO CLOUDS BELOW 12,000 FEET WITH NO
       SIGNIFICANT WEATHER AND/OR OBSTRUCTIONS TO VISIBILITY.

  * THESE STATIONS DO NOT REPORT WEATHER SUCH AS RAIN...SNOW OR FOG.

NEZ001>004-019>022-054>056-051600-
NEBRASKA PANHANDLE

CITY           SKY/WX    TMP DP  RH WIND       PRES   REMARKS
SCOTTSBLUFF    CLOUDY    51  46  83 SE8       29.99F
ALLIANCE       CLOUDY    51  46  83 S6        30.00F
CHADRON        CLOUDY    53  46  77 S10       29.99F
KIMBALL        CLOUDY    47  47  99 SE6       29.99F FOG
SIDNEY         CLOUDY    49  46  90 SE5       30.01F
$$

NEZ057>060-069>072-079>082-051600-
SOUTHWEST NEBRASKA

CITY           SKY/WX    TMP DP  RH WIND       PRES   REMARKS
NORTH PLATTE   CLOUDY    54  53  97 E10       30.03F FOG
IMPERIAL       CLOUDY    52  50  93 E9        30.01F FOG
LEXINGTON      CLOUDY    58  58  97 E6        30.03F FOG
MCCOOK         CLOUDY    57  56  96 NE9       30.00S FOG
OGALLALA       FOG       51  51  99 E5        30.02S VSB 3/4
$$

NEZ005>010-023>029-035>040-094-051600-
NORTH CENTRAL NEBRASKA

CITY           SKY/WX    TMP DP  RH WIND       PRES   REMARKS
VALENTINE      CLOUDY    52  51  97 SE7       30.04F FOG
AINSWORTH      CLOUDY    54  53  98 E10       30.04F FOG
BROKEN BOW     CLOUDY    56  55  97 SE7       30.04F FOG
O`NEILL        CLOUDY    55  54  95 SE10      30.07R FOG
ORD            CLOUDY    56  55  97 E7        30.05F FOG
THEDFORD       FOG       54  53  97 SE9       30.05S VSB 1
$$

NEZ041-046>049-061>064-073>077-083>087-051600-
SOUTH CENTRAL NEBRASKA

CITY           SKY/WX    TMP DP  RH WIND       PRES   REMARKS
GRAND ISLAND   CLOUDY    58  57  97 NE9       30.06F FOG
AURORA         CLOUDY    60  60 100 E8        30.06F FOG
HASTINGS       CLOUDY    62  59  90 SE7       30.04F
HEBRON         PTSUNNY   68  59  73 S7        30.05S
HOLDREGE       CLOUDY    59  58  96 E7        30.03F FOG
KEARNEY *      CLOUDY    61  57  88 E8        30.04F
YORK           CLOUDY    61  61 100 E9        30.06F FOG
$$

NEZ011>018-030>034-042>045-051600-
NORTHEAST NEBRASKA

CITY           SKY/WX    TMP DP  RH WIND       PRES   REMARKS
NORFOLK        FOG       56  56 100 E6        30.07F VSB 1/4
ALBION         FOG       56  55  94 SE8       30.08S VSB 1/4
BLAIR          CLOUDY    62  59  90 SE9       30.09R
COLUMBUS *     CLOUDY    59  54  82 SE6       30.09S
FREMONT        CLOUDY    65  62  88 SE9       30.09R
TEKAMAH        CLOUDY    63  61  93 S8        30.08S FOG
WAYNE          CLOUDY    56  55  97 SE8       30.09S FOG
$$

NEZ050>053-065>068-078-088>093-051600-
SOUTHEAST NEBRASKA

CITY           SKY/WX    TMP DP  RH WIND       PRES   REMARKS
LINCOLN        CLOUDY    63  60  90 VRB5      30.08S
OMAHA EPPLEY   PTSUNNY   65  60  84 S9        30.09S
BEATRICE       PTSUNNY   67  59  76 S7        30.07S
FALLS CITY     PTSUNNY   66  62  87 SE9       30.09S
NEBRASKA CITY  CLOUDY    63  62  97 SE8       30.10R
PLATTSMOUTH    CLOUDY    63  59  85 CALM      30.10R
$$

NEZ044-045-051>053-067-051600-
OMAHA AREA

CITY           SKY/WX    TMP DP  RH WIND       PRES   REMARKS
OMAHA EPPLEY   PTSUNNY   65  60  84 S9        30.09S
BLAIR          CLOUDY    62  59  90 SE9       30.09R
FREMONT        CLOUDY    65  62  88 SE9       30.09R
MILLARD        CLOUDY    64  60  86 SE5       30.09R
OFFUTT AFB     CLOUDY    65  61  86 SE8       30.09R
PLATTSMOUTH    CLOUDY    63  59  85 CALM      30.10R
$$



USA.gov is the U.S. government's official web portal to all federal, state and local government web resources and services.